Time,TemperatureF,DewpointF,PressureIn,WindDirection,WindDirectionDegrees,WindSpeedMPH,WindSpeedGustMPH,Humidity,HourlyPrecipIn,Conditions,Clouds,dailyrainin,SoftwareType,DateUTC
2013-04-15 00:02:00,31.0,26.0,29.38,NE,39,0.0,0.0,80,0.00,,,0.00,,2013-04-15 05:02:00,
2013-04-15 00:12:00,31.0,26.0,29.38,NE,39,0.0,0.0,80,0.00,,,0.00,,2013-04-15 05:12:00,
2013-04-15 00:23:00,31.0,26.0,29.37,NE,39,0.0,0.0,80,0.00,,,0.00,,2013-04-15 05:23:00,
2013-04-15 00:32:00,31.0,26.0,29.37,NE,38,0.0,0.0,80,0.00,,,0.00,,2013-04-15 05:32:00,
2013-04-15 00:42:00,31.0,26.0,29.37,NE,38,0.0,0.0,80,0.00,,,0.00,,2013-04-15 05:42:00,
2013-04-15 00:53:00,31.0,26.0,29.36,NE,37,0.0,0.0,80,0.00,,,0.00,,2013-04-15 05:53:00,
2013-04-15 01:02:00,31.0,26.0,29.36,NNE,18,0.0,0.0,81,0.00,,,0.00,,2013-04-15 06:02:00,
2013-04-15 01:12:00,31.0,26.0,29.36,NNE,18,0.0,0.0,81,0.00,,,0.00,,2013-04-15 06:12:00,
2013-04-15 01:22:00,31.0,26.0,29.37,North,5,0.0,0.0,81,0.00,,,0.00,,2013-04-15 06:22:00,
2013-04-15 01:33:00,31.0,26.0,29.37,North,5,0.0,0.0,81,0.00,,,0.00,,2013-04-15 06:33:00,
2013-04-15 01:42:00,31.0,26.0,29.37,North,5,0.0,0.0,81,0.00,,,0.00,,2013-04-15 06:42:00,
2013-04-15 01:52:00,31.0,26.0,29.37,North,355,0.0,0.0,81,0.01,,,0.01,,2013-04-15 06:52:00,
2013-04-15 02:02:00,30.0,25.0,29.37,NNW,334,0.0,0.0,81,0.01,,,0.01,,2013-04-15 07:02:00,
2013-04-15 02:41:00,31.0,26.0,29.38,West,270,0.0,0.0,80,0.01,,,0.01,,2013-04-15 07:41:00,
2013-04-15 02:42:00,30.0,25.0,29.38,West,263,0.0,0.0,81,0.01,,,0.01,,2013-04-15 07:42:00,
2013-04-15 02:53:00,29.0,24.0,29.39,West,261,0.0,0.0,81,0.00,,,0.01,,2013-04-15 07:53:00,
2013-04-15 03:02:00,29.0,24.0,29.39,WSW,257,0.0,0.0,81,0.00,,,0.01,,2013-04-15 08:02:00,
2013-04-15 03:13:00,29.0,24.0,29.39,WSW,257,0.0,0.0,81,0.00,,,0.01,,2013-04-15 08:13:00,
2013-04-15 03:22:00,30.0,25.0,29.39,WSW,253,0.0,0.0,80,0.00,,,0.01,,2013-04-15 08:22:00,
2013-04-15 03:33:00,30.0,25.0,29.40,WSW,258,0.0,0.0,80,0.00,,,0.01,,2013-04-15 08:33:00,
2013-04-15 03:42:00,30.0,25.0,29.40,WSW,258,0.0,0.0,80,0.00,,,0.01,,2013-04-15 08:42:00,
2013-04-15 03:52:00,29.0,24.0,29.41,WSW,258,0.0,0.0,80,0.00,,,0.01,,2013-04-15 08:52:00,
2013-04-15 04:02:00,30.0,25.0,29.42,WSW,257,0.0,0.0,80,0.00,,,0.01,,2013-04-15 09:02:00,
2013-04-15 04:12:00,30.0,25.0,29.42,WSW,257,0.0,0.0,80,0.00,,,0.01,,2013-04-15 09:12:00,
2013-04-15 04:23:00,29.0,24.0,29.42,WSW,258,0.0,0.0,80,0.00,,,0.01,,2013-04-15 09:23:00,
2013-04-15 04:32:00,29.0,24.0,29.43,WSW,258,0.0,0.0,80,0.00,,,0.01,,2013-04-15 09:32:00,
2013-04-15 04:42:00,29.0,24.0,29.43,WSW,258,0.0,0.0,80,0.00,,,0.01,,2013-04-15 09:42:00,
2013-04-15 04:53:00,29.0,24.0,29.44,WSW,258,0.0,0.0,80,0.00,,,0.01,,2013-04-15 09:53:00,
2013-04-15 05:02:00,29.0,24.0,29.44,West,259,0.0,0.0,80,0.00,,,0.01,,2013-04-15 10:02:00,
2013-04-15 05:13:00,29.0,24.0,29.44,West,259,0.0,0.0,80,0.00,,,0.01,,2013-04-15 10:13:00,
2013-04-15 05:23:00,29.0,24.0,29.45,West,259,0.0,0.0,80,0.00,,,0.01,,2013-04-15 10:23:00,
2013-04-15 05:33:00,29.0,24.0,29.44,West,259,0.0,0.0,80,0.00,,,0.01,,2013-04-15 10:33:00,
2013-04-15 05:42:00,29.0,24.0,29.44,West,259,0.0,0.0,80,0.00,,,0.01,,2013-04-15 10:42:00,
2013-04-15 05:53:00,28.0,22.0,29.45,West,259,0.0,0.0,79,0.00,,,0.01,,2013-04-15 10:53:00,
2013-04-15 06:03:00,28.0,22.0,29.46,West,259,0.0,0.0,79,0.00,,,0.01,,2013-04-15 11:03:00,
2013-04-15 06:12:00,28.0,22.0,29.46,West,259,0.0,0.0,79,0.00,,,0.01,,2013-04-15 11:12:00,
2013-04-15 06:22:00,28.0,22.0,29.46,West,259,0.0,0.0,78,0.00,,,0.01,,2013-04-15 11:22:00,
2013-04-15 06:32:00,28.0,22.0,29.46,West,259,0.0,0.0,78,0.00,,,0.01,,2013-04-15 11:32:00,
2013-04-15 06:43:00,28.0,22.0,29.46,West,259,0.0,0.0,78,0.00,,,0.01,,2013-04-15 11:43:00,
2013-04-15 06:53:00,28.0,22.0,29.47,West,259,0.0,0.0,77,0.00,,,0.01,,2013-04-15 11:53:00,
2013-04-15 07:04:00,28.0,22.0,29.48,West,259,0.0,0.0,77,0.00,,,0.01,,2013-04-15 12:04:00,
2013-04-15 07:14:00,28.0,22.0,29.48,West,259,0.0,0.0,77,0.00,,,0.01,,2013-04-15 12:14:00,
2013-04-15 07:23:00,30.0,24.0,29.51,West,261,0.0,0.0,77,0.00,,,0.01,,2013-04-15 12:23:00,
2013-04-15 07:33:00,30.0,24.0,29.52,West,261,0.0,0.0,77,0.00,,,0.01,,2013-04-15 12:33:00,
2013-04-15 07:43:00,30.0,24.0,29.52,West,261,0.0,0.0,77,0.00,,,0.01,,2013-04-15 12:43:00,
2013-04-15 07:53:00,30.0,23.0,29.52,West,267,0.0,0.0,76,0.00,,,0.01,,2013-04-15 12:53:00,
2013-04-15 08:04:00,30.0,23.0,29.54,West,263,0.0,0.0,76,0.00,,,0.01,,2013-04-15 13:04:00,
2013-04-15 08:12:00,30.0,23.0,29.54,West,263,0.0,0.0,76,0.00,,,0.01,,2013-04-15 13:12:00,
2013-04-15 08:23:00,30.0,23.0,29.54,West,260,0.0,0.0,76,0.00,,,0.01,,2013-04-15 13:23:00,
2013-04-15 08:33:00,31.0,24.0,29.56,West,261,0.0,0.0,76,0.00,,,0.01,,2013-04-15 13:33:00,
2013-04-15 08:43:00,31.0,24.0,29.56,West,261,0.0,0.0,76,0.00,,,0.01,,2013-04-15 13:43:00,
2013-04-15 08:54:00,31.0,24.0,29.56,West,261,0.0,0.0,76,0.00,,,0.01,,2013-04-15 13:54:00,
2013-04-15 09:04:00,31.0,24.0,29.56,West,263,0.0,0.0,76,0.00,,,0.01,,2013-04-15 14:04:00,
2013-04-15 09:13:00,31.0,24.0,29.56,West,263,0.0,0.0,76,0.00,,,0.01,,2013-04-15 14:13:00,
2013-04-15 09:22:00,31.0,24.0,29.57,West,265,0.0,0.0,75,0.00,,,0.01,,2013-04-15 14:22:00,
2013-04-15 09:44:00,31.0,24.0,29.57,West,264,0.0,0.0,75,0.00,,,0.01,,2013-04-15 14:44:00,
2013-04-15 09:54:00,31.0,24.0,29.58,West,261,9.0,11.0,74,0.00,,,0.01,,2013-04-15 14:54:00,
2013-04-15 10:13:00,31.0,23.0,29.59,West,263,14.0,20.0,73,0.00,,,0.01,,2013-04-15 15:13:00,
2013-04-15 10:23:00,32.0,25.0,29.60,West,267,14.0,19.0,74,0.00,,,0.01,,2013-04-15 15:23:00,
2013-04-15 10:35:00,32.0,24.0,29.62,West,263,15.0,21.0,73,0.00,,,0.01,,2013-04-15 15:35:00,
2013-04-15 10:43:00,32.0,24.0,29.62,West,263,15.0,21.0,73,0.00,,,0.01,,2013-04-15 15:43:00,
2013-04-15 10:54:00,32.0,24.0,29.63,WSW,257,12.0,18.0,73,0.00,,,0.01,,2013-04-15 15:54:00,
2013-04-15 11:04:00,33.0,25.0,29.63,WSW,246,12.0,18.0,72,0.00,,,0.01,,2013-04-15 16:04:00,
2013-04-15 11:13:00,33.0,25.0,29.63,WSW,246,12.0,18.0,72,0.00,,,0.01,,2013-04-15 16:13:00,
2013-04-15 11:24:00,33.0,25.0,29.66,West,269,14.0,20.0,72,0.01,,,0.02,,2013-04-15 16:24:00,
2013-04-15 11:33:00,33.0,25.0,29.68,West,279,13.0,18.0,71,0.02,,,0.03,,2013-04-15 16:33:00,
2013-04-15 11:44:00,33.0,25.0,29.68,West,279,13.0,18.0,71,0.02,,,0.03,,2013-04-15 16:44:00,
2013-04-15 11:54:00,33.0,24.0,29.69,West,269,12.0,21.0,70,0.03,,,0.04,,2013-04-15 16:54:00,
2013-04-15 12:03:00,33.0,24.0,29.69,West,269,14.0,21.0,70,0.04,,,0.05,,2013-04-15 17:03:00,
2013-04-15 12:14:00,33.0,24.0,29.69,West,269,14.0,21.0,70,0.04,,,0.05,,2013-04-15 17:14:00,
2013-04-15 12:22:00,33.0,24.0,29.69,WNW,296,14.0,20.0,68,0.04,,,0.06,,2013-04-15 17:22:00,
2013-04-15 12:33:00,33.0,23.0,29.70,WSW,251,16.0,24.0,67,0.04,,,0.07,,2013-04-15 17:33:00,
2013-04-15 12:43:00,33.0,23.0,29.70,WSW,251,16.0,24.0,67,0.04,,,0.07,,2013-04-15 17:43:00,
2013-04-15 12:52:00,33.0,24.0,29.72,West,268,14.0,19.0,68,0.04,,,0.08,,2013-04-15 17:52:00,
2013-04-15 13:03:00,34.0,24.0,29.73,WSW,258,15.0,23.0,67,0.03,,,0.08,,2013-04-15 18:03:00,
2013-04-15 13:12:00,34.0,24.0,29.73,WSW,258,15.0,23.0,67,0.03,,,0.08,,2013-04-15 18:12:00,
2013-04-15 13:23:00,34.0,24.0,29.75,West,266,15.0,25.0,67,0.03,,,0.09,,2013-04-15 18:23:00,
2013-04-15 13:32:00,34.0,24.0,29.75,West,268,16.0,23.0,66,0.03,,,0.10,,2013-04-15 18:32:00,
2013-04-15 13:42:00,34.0,24.0,29.75,West,268,16.0,23.0,66,0.03,,,0.10,,2013-04-15 18:42:00,
2013-04-15 13:52:00,34.0,24.0,29.75,West,273,16.0,21.0,66,0.02,,,0.10,,2013-04-15 18:52:00,
2013-04-15 14:02:00,34.0,24.0,29.77,West,260,12.0,20.0,66,0.02,,,0.10,,2013-04-15 19:02:00,
2013-04-15 14:12:00,34.0,24.0,29.77,West,260,12.0,20.0,66,0.02,,,0.10,,2013-04-15 19:12:00,
2013-04-15 14:22:00,34.0,24.0,29.78,WSW,253,12.0,19.0,66,0.01,,,0.10,,2013-04-15 19:22:00,
2013-04-15 14:36:00,35.0,24.0,29.78,West,280,13.0,19.0,64,0.01,,,0.11,,2013-04-15 19:36:00,
2013-04-15 14:50:00,35.0,24.0,29.78,West,280,13.0,19.0,64,0.01,,,0.11,,2013-04-15 19:50:00,
2013-04-15 15:01:00,35.0,24.0,29.80,West,265,18.0,23.0,63,0.01,,,0.11,,2013-04-15 20:01:00,
2013-04-15 15:02:00,35.0,23.0,29.80,West,261,15.0,19.0,62,0.01,,,0.11,,2013-04-15 20:02:00,
2013-04-15 15:11:00,35.0,23.0,29.80,West,261,15.0,19.0,62,0.01,,,0.11,,2013-04-15 20:11:00,
2013-04-15 15:22:00,35.0,23.0,29.80,West,271,12.0,20.0,62,0.01,,,0.11,,2013-04-15 20:22:00,
2013-04-15 15:32:00,35.0,23.0,29.82,West,271,11.0,17.0,60,0.00,,,0.11,,2013-04-15 20:32:00,
2013-04-15 15:42:00,35.0,23.0,29.82,West,271,11.0,17.0,60,0.00,,,0.11,,2013-04-15 20:42:00,
2013-04-15 15:52:00,35.0,23.0,29.83,West,270,12.0,19.0,61,0.00,,,0.11,,2013-04-15 20:52:00,
2013-04-15 16:02:00,35.0,22.0,29.83,West,261,13.0,19.0,59,0.00,,,0.11,,2013-04-15 21:02:00,
2013-04-15 16:12:00,35.0,22.0,29.83,West,261,13.0,19.0,59,0.00,,,0.11,,2013-04-15 21:12:00,
2013-04-15 16:22:00,35.0,23.0,29.85,West,260,11.0,19.0,61,0.00,,,0.11,,2013-04-15 21:22:00,
2013-04-15 16:32:00,35.0,23.0,29.85,West,263,13.0,19.0,60,0.00,,,0.11,,2013-04-15 21:32:00,
2013-04-15 16:43:00,35.0,23.0,29.85,West,263,13.0,19.0,60,0.00,,,0.11,,2013-04-15 21:43:00,
2013-04-15 16:53:00,35.0,21.0,29.85,WSW,254,12.0,23.0,56,0.00,,,0.11,,2013-04-15 21:53:00,
2013-04-15 17:02:00,35.0,22.0,29.86,WSW,248,12.0,19.0,59,0.00,,,0.11,,2013-04-15 22:02:00,
2013-04-15 17:13:00,35.0,22.0,29.86,WSW,248,12.0,19.0,59,0.00,,,0.11,,2013-04-15 22:13:00,
2013-04-15 17:23:00,35.0,22.0,29.86,West,265,11.0,18.0,59,0.00,,,0.11,,2013-04-15 22:23:00,
2013-04-15 17:33:00,35.0,23.0,29.88,West,267,10.0,17.0,60,0.00,,,0.11,,2013-04-15 22:33:00,
2013-04-15 17:42:00,35.0,23.0,29.88,West,267,10.0,17.0,60,0.00,,,0.11,,2013-04-15 22:42:00,
2013-04-15 17:52:00,35.0,22.0,29.88,WSW,255,10.0,17.0,58,0.00,,,0.11,,2013-04-15 22:52:00,
2013-04-15 18:02:00,35.0,22.0,29.89,West,264,10.0,15.0,59,0.00,,,0.11,,2013-04-15 23:02:00,
2013-04-15 18:12:00,35.0,22.0,29.89,West,264,10.0,15.0,59,0.00,,,0.11,,2013-04-15 23:12:00,
2013-04-15 18:22:00,35.0,23.0,29.90,West,260,13.0,17.0,61,0.00,,,0.11,,2013-04-15 23:22:00,
2013-04-15 18:32:00,34.0,22.0,29.92,West,259,11.0,16.0,62,0.00,,,0.11,,2013-04-15 23:32:00,
2013-04-15 18:42:00,34.0,22.0,29.92,West,259,11.0,16.0,62,0.00,,,0.11,,2013-04-15 23:42:00,
2013-04-15 18:52:00,34.0,21.0,29.92,WSW,255,10.0,15.0,58,0.00,,,0.11,,2013-04-15 23:52:00,
2013-04-15 19:02:00,34.0,22.0,29.94,West,265,9.0,15.0,60,0.00,,,0.11,,2013-04-16 00:02:00,
2013-04-15 19:12:00,34.0,22.0,29.94,West,265,9.0,15.0,60,0.00,,,0.11,,2013-04-16 00:12:00,
2013-04-15 19:22:00,34.0,23.0,29.94,WSW,249,7.0,16.0,63,0.00,,,0.11,,2013-04-16 00:22:00,
2013-04-15 19:32:00,34.0,22.0,29.94,West,261,8.0,12.0,60,0.00,,,0.11,,2013-04-16 00:32:00,
2013-04-15 19:42:00,34.0,22.0,29.94,West,261,8.0,12.0,60,0.00,,,0.11,,2013-04-16 00:42:00,
2013-04-15 19:52:00,33.0,20.0,29.95,WSW,253,8.0,14.0,59,0.00,,,0.11,,2013-04-16 00:52:00,
2013-04-15 20:02:00,33.0,21.0,29.95,WSW,243,11.0,17.0,60,0.00,,,0.11,,2013-04-16 01:02:00,
2013-04-15 20:12:00,33.0,21.0,29.95,WSW,243,11.0,17.0,60,0.00,,,0.11,,2013-04-16 01:12:00,
2013-04-15 20:22:00,33.0,21.0,29.97,WNW,283,10.0,15.0,61,0.00,,,0.11,,2013-04-16 01:22:00,
2013-04-15 20:32:00,33.0,21.0,29.98,West,281,8.0,13.0,62,0.00,,,0.11,,2013-04-16 01:32:00,
2013-04-15 20:42:00,33.0,21.0,29.98,West,281,8.0,13.0,62,0.00,,,0.11,,2013-04-16 01:42:00,
2013-04-15 20:52:00,33.0,22.0,29.98,WSW,252,7.0,11.0,63,0.00,,,0.11,,2013-04-16 01:52:00,
2013-04-15 21:02:00,33.0,22.0,29.99,West,281,6.0,13.0,64,0.00,,,0.11,,2013-04-16 02:02:00,
2013-04-15 21:12:00,33.0,22.0,29.99,West,281,6.0,13.0,64,0.00,,,0.11,,2013-04-16 02:12:00,
2013-04-15 21:22:00,32.0,21.0,30.00,West,260,7.0,12.0,64,0.00,,,0.11,,2013-04-16 02:22:00,
2013-04-15 21:32:00,32.0,20.0,30.01,West,260,7.0,17.0,62,0.00,,,0.11,,2013-04-16 02:32:00,
2013-04-15 21:42:00,32.0,20.0,30.01,West,260,7.0,17.0,62,0.00,,,0.11,,2013-04-16 02:42:00,
2013-04-15 21:52:00,32.0,20.0,30.03,West,259,7.0,13.0,62,0.00,,,0.11,,2013-04-16 02:52:00,
2013-04-15 22:02:00,32.0,20.0,30.03,West,259,7.0,13.0,62,0.00,,,0.11,,2013-04-16 03:02:00,
2013-04-15 22:12:00,32.0,20.0,30.03,West,259,7.0,13.0,62,0.00,,,0.11,,2013-04-16 03:12:00,
2013-04-15 22:22:00,32.0,21.0,30.04,West,274,7.0,14.0,63,0.00,,,0.11,,2013-04-16 03:22:00,
2013-04-15 22:33:00,32.0,20.0,30.04,WSW,257,8.0,12.0,61,0.00,,,0.11,,2013-04-16 03:33:00,
2013-04-15 22:43:00,32.0,20.0,30.04,WSW,257,8.0,12.0,61,0.00,,,0.11,,2013-04-16 03:43:00,
2013-04-15 22:52:00,32.0,20.0,30.05,West,264,10.0,15.0,61,0.00,,,0.11,,2013-04-16 03:52:00,
2013-04-15 23:03:00,31.0,20.0,30.05,West,264,9.0,12.0,62,0.00,,,0.11,,2013-04-16 04:03:00,
2013-04-15 23:12:00,31.0,20.0,30.05,West,264,9.0,12.0,62,0.00,,,0.11,,2013-04-16 04:12:00,
2013-04-15 23:23:00,31.0,20.0,30.07,WSW,254,10.0,14.0,63,0.00,,,0.11,,2013-04-16 04:23:00,
2013-04-15 23:33:00,31.0,20.0,30.07,WSW,254,10.0,14.0,63,0.00,,,0.11,,2013-04-16 04:33:00,
2013-04-15 23:42:00,31.0,20.0,30.07,WSW,254,10.0,14.0,63,0.00,,,0.11,,2013-04-16 04:42:00,
2013-04-15 23:53:00,31.0,20.0,30.06,WSW,254,7.0,15.0,64,0.00,,,0.11,,2013-04-16 04:53:00,